| time (UTC) | temp F | wind direction | speed MPH | gust MPH | rain 1hr in | rain 24hr in | rain mn in | humidity % | barometer mb |
| 20260506211405 | 54 | 237 | 0.0 | 0.0 | 0.00 | 1.06 | 0.56 | 49 | 1010.7 |
| 20260506210904 | 54 | 244 | 0.0 | 1.0 | 0.00 | 1.06 | 0.56 | 47 | 1010.8 |
| 20260506210405 | 54 | 230 | 0.0 | 0.0 | 0.00 | 1.06 | 0.56 | 50 | 1010.7 |
| 20260506205904 | 54 | 231 | 0.0 | 5.0 | 0.00 | 1.07 | 0.56 | 53 | 1010.6 |
| 20260506205405 | 54 | 209 | 0.0 | 0.0 | 0.00 | 1.07 | 0.56 | 53 | 1010.4 |
| 20260506204905 | 54 | 197 | 0.0 | 0.0 | 0.00 | 1.08 | 0.56 | 51 | 1010.4 |
| 20260506204404 | 54 | 202 | 0.0 | 0.0 | 0.00 | 1.08 | 0.56 | 50 | 1010.5 |
| 20260506203904 | 54 | 202 | 0.0 | 0.0 | 0.00 | 1.08 | 0.56 | 53 | 1010.4 |
| 20260506203405 | 54 | 202 | 0.0 | 0.0 | 0.00 | 1.08 | 0.56 | 52 | 1010.4 |
| 20260506202905 | 54 | 22 | 0.0 | 0.0 | 0.00 | 1.08 | 0.56 | 51 | 1010.3 |
| 20260506202405 | 54 | 40 | 1.0 | 5.0 | 0.00 | 1.08 | 0.56 | 49 | 1010.3 |
| 20260506201905 | 55 | 237 | 0.0 | 1.0 | 0.00 | 1.08 | 0.56 | 49 | 1010.5 |
| 20260506201404 | 55 | 321 | 0.0 | 0.0 | 0.00 | 1.08 | 0.56 | 52 | 1010.4 |
| 20260506200905 | 55 | 32 | 0.0 | 0.0 | 0.00 | 1.08 | 0.56 | 55 | 1010.0 |
| 20260506200405 | 55 | 256 | 0.0 | 0.0 | 0.00 | 1.08 | 0.56 | 55 | 1010.0 |
| 20260506195905 | 54 | 257 | 0.0 | 0.0 | 0.00 | 1.08 | 0.56 | 54 | 1010.1 |
| 20260506195405 | 54 | 257 | 0.0 | 0.0 | 0.00 | 1.08 | 0.56 | 51 | 1010.3 |
| 20260506194904 | 54 | 250 | 2.0 | 9.0 | 0.00 | 1.08 | 0.56 | 49 | 1010.4 |
| 20260506194405 | 54 | 235 | 0.0 | 5.0 | 0.00 | 1.08 | 0.56 | 51 | 1010.4 |
| 20260506193905 | 54 | 107 | 1.0 | 12.0 | 0.00 | 1.08 | 0.56 | 56 | 1010.3 |
| 20260506193405 | 55 | 336 | 0.0 | 0.0 | 0.00 | 1.08 | 0.56 | 53 | 1010.2 |
| 20260506192904 | 55 | 243 | 0.0 | 0.0 | 0.00 | 1.08 | 0.56 | 51 | 1010.4 |
| 20260506192405 | 55 | 233 | 0.0 | 0.0 | 0.00 | 1.08 | 0.56 | 49 | 1010.4 |
| 20260506191904 | 55 | 48 | 0.0 | 5.0 | 0.00 | 1.08 | 0.56 | 53 | 1010.3 |
| 20260506191404 | 56 | 283 | 1.0 | 8.0 | 0.00 | 1.08 | 0.56 | 52 | 1010.3 |
| 20260506190905 | 56 | 252 | 1.0 | 9.0 | 0.00 | 1.08 | 0.56 | 51 | 1010.3 |
| 20260506190405 | 56 | 252 | 1.0 | 6.0 | 0.00 | 1.08 | 0.56 | 51 | 1010.2 |
| 20260506185404 | 57 | 101 | 0.0 | 9.0 | 0.00 | 1.08 | 0.56 | 56 | 1010.0 |
| 20260506184905 | 57 | 40 | 0.0 | 3.0 | 0.00 | 1.08 | 0.56 | 54 | 1010.0 |
| 20260506184405 | 57 | 34 | 0.0 | 6.0 | 0.00 | 1.08 | 0.56 | 55 | 1010.0 |
| 20260506183905 | 57 | 327 | 1.0 | 6.0 | 0.00 | 1.08 | 0.56 | 55 | 1009.8 |
| 20260506182905 | 58 | 243 | 1.0 | 6.0 | 0.00 | 1.08 | 0.56 | 57 | 1009.9 |
| 20260506182405 | 57 | 280 | 1.0 | 14.0 | 0.00 | 1.08 | 0.56 | 55 | 1010.0 |
| 20260506181904 | 57 | 163 | 1.0 | 8.0 | 0.00 | 1.08 | 0.56 | 56 | 1009.8 |
| 20260506181404 | 56 | 285 | 0.0 | 0.0 | 0.00 | 1.08 | 0.56 | 56 | 1009.9 |
| 20260506180404 | 57 | 264 | 1.0 | 9.0 | 0.00 | 1.08 | 0.56 | 57 | 1009.8 |
| 20260506175905 | 57 | 67 | 0.0 | 1.0 | 0.00 | 1.08 | 0.56 | 57 | 1009.9 |
| 20260506175405 | 57 | 36 | 0.0 | 13.0 | 0.00 | 1.08 | 0.56 | 58 | 1010.0 |
| 20260506174405 | 55 | 248 | 2.0 | 12.0 | 0.00 | 1.08 | 0.56 | 59 | 1010.0 |
| 20260506173904 | 56 | 51 | 0.0 | 0.0 | 0.00 | 1.08 | 0.56 | 58 | 1009.9 |
| 20260506173405 | 56 | 265 | 4.0 | 9.0 | 0.00 | 1.08 | 0.56 | 59 | 1009.7 |
| 20260506172905 | 55 | 260 | 0.0 | 3.0 | 0.00 | 1.08 | 0.56 | 62 | 1009.7 |
| 20260506171904 | 54 | 260 | 1.0 | 12.0 | 0.00 | 1.08 | 0.56 | 66 | 1009.8 |
| 20260506171404 | 54 | 238 | 0.0 | 0.0 | 0.00 | 1.08 | 0.56 | 66 | 1009.7 |
| 20260506170905 | 55 | 234 | 2.0 | 9.0 | 0.00 | 1.08 | 0.56 | 66 | 1009.7 |
| 20260506170405 | 55 | 91 | 0.0 | 5.0 | 0.00 | 1.08 | 0.56 | 66 | 1009.8 |
| 20260506165905 | 56 | 324 | 0.0 | 3.0 | 0.00 | 1.08 | 0.56 | 69 | 1009.7 |
| 20260506165404 | 55 | 72 | 2.0 | 6.0 | 0.00 | 1.08 | 0.56 | 70 | 1009.7 |
| 20260506164904 | 55 | 252 | 5.0 | 12.0 | 0.00 | 1.08 | 0.56 | 68 | 1009.5 |
| 20260506164404 | 55 | 252 | 3.0 | 12.0 | 0.00 | 1.08 | 0.56 | 70 | 1009.5 |
| 20260506163905 | 54 | 282 | 0.0 | 6.0 | 0.00 | 1.08 | 0.56 | 70 | 1009.5 |
| 20260506163404 | 54 | 173 | 0.0 | 1.0 | 0.00 | 1.08 | 0.56 | 74 | 1009.4 |
| 20260506162904 | 54 | 228 | 1.0 | 3.0 | 0.00 | 1.08 | 0.56 | 73 | 1009.4 |
| 20260506162404 | 53 | 252 | 3.0 | 6.0 | 0.00 | 1.08 | 0.56 | 71 | 1009.5 |
| 20260506161905 | 53 | 39 | 0.0 | 8.0 | 0.00 | 1.08 | 0.56 | 76 | 1009.6 |
| 20260506161405 | 53 | 51 | 0.0 | 0.0 | 0.00 | 1.08 | 0.56 | 74 | 1009.5 |
| 20260506160904 | 53 | 45 | 0.0 | 0.0 | 0.00 | 1.08 | 0.56 | 77 | 1009.6 |
| 20260506160405 | 53 | 45 | 0.0 | 5.0 | 0.00 | 1.08 | 0.56 | 76 | 1009.4 |
| 20260506155904 | 53 | 229 | 2.0 | 5.0 | 0.00 | 1.08 | 0.56 | 76 | 1009.3 |
| 20260506154404 | 51 | 237 | 0.0 | 1.0 | 0.00 | 1.08 | 0.56 | 81 | 1009.3 |
| 20260506153404 | 50 | 68 | 0.0 | 0.0 | 0.00 | 1.08 | 0.56 | 82 | 1009.4 |
| 20260506152405 | 50 | 63 | 0.0 | 5.0 | 0.00 | 1.08 | 0.56 | 83 | 1009.2 |
| 20260506151905 | 50 | 32 | 0.0 | 0.0 | 0.00 | 1.08 | 0.56 | 85 | 1009.1 |
| 20260506151405 | 50 | 191 | 0.0 | 0.0 | 0.00 | 1.08 | 0.56 | 87 | 1009.0 |
| 20260506150905 | 49 | 61 | 0.0 | 5.0 | 0.00 | 1.08 | 0.56 | 87 | 1008.9 |
| 20260506150404 | 49 | 37 | 0.0 | 8.0 | 0.00 | 1.08 | 0.56 | 86 | 1008.8 |
| 20260506145905 | 50 | 286 | 0.0 | 1.0 | 0.00 | 1.08 | 0.56 | 89 | 1008.8 |
| 20260506144905 | 49 | 255 | 0.0 | 5.0 | 0.00 | 1.08 | 0.56 | 89 | 1008.8 |
| 20260506144405 | 49 | 264 | 0.0 | 0.0 | 0.00 | 1.08 | 0.56 | 89 | 1008.6 |
| 20260506143904 | 49 | 261 | 1.0 | 6.0 | 0.00 | 1.08 | 0.56 | 91 | 1008.7 |
| 20260506143404 | 49 | 238 | 0.0 | 1.0 | 0.00 | 1.08 | 0.56 | 91 | 1008.6 |
| 20260506142905 | 49 | 241 | 1.0 | 6.0 | 0.00 | 1.08 | 0.56 | 91 | 1008.7 |
| 20260506141904 | 49 | 52 | 0.0 | 0.0 | 0.00 | 1.08 | 0.56 | 92 | 1008.7 |
| 20260506141405 | 49 | 130 | 0.0 | 0.0 | 0.00 | 1.08 | 0.56 | 92 | 1008.6 |
| 20260506140905 | 49 | 130 | 0.0 | 0.0 | 0.00 | 1.08 | 0.56 | 92 | 1008.5 |
| 20260506140404 | 49 | 130 | 0.0 | 3.0 | 0.00 | 1.08 | 0.56 | 92 | 1008.3 |
| 20260506135904 | 49 | 205 | 0.0 | 0.0 | 0.00 | 1.08 | 0.56 | 92 | 1008.3 |
| 20260506135405 | 49 | 201 | 0.0 | 6.0 | 0.00 | 1.08 | 0.56 | 93 | 1008.3 |
| 20260506134905 | 49 | 197 | 0.0 | 0.0 | 0.00 | 1.08 | 0.56 | 93 | 1008.2 |
| 20260506134405 | 49 | 197 | 0.0 | 0.0 | 0.00 | 1.08 | 0.56 | 93 | 1008.0 |
| 20260506133905 | 49 | 197 | 0.0 | 0.0 | 0.00 | 1.08 | 0.56 | 93 | 1007.9 |
| 20260506133405 | 49 | 207 | 0.0 | 0.0 | 0.00 | 1.08 | 0.56 | 94 | 1008.0 |
| 20260506132904 | 48 | 211 | 0.0 | 0.0 | 0.00 | 1.08 | 0.56 | 94 | 1007.9 |
| 20260506131904 | 48 | 211 | 0.0 | 0.0 | 0.00 | 1.08 | 0.56 | 94 | 1007.9 |
| 20260506130404 | 48 | 243 | 0.0 | 0.0 | 0.00 | 1.08 | 0.56 | 94 | 1007.8 |
| 20260506125905 | 48 | 240 | 0.0 | 5.0 | 0.00 | 1.08 | 0.56 | 94 | 1007.7 |
| 20260506125405 | 48 | 119 | 0.0 | 0.0 | 0.00 | 1.08 | 0.56 | 94 | 1007.6 |
| 20260506124405 | 47 | 119 | 0.0 | 0.0 | 0.00 | 1.08 | 0.56 | 94 | 1007.4 |
| 20260506123405 | 47 | 119 | 0.0 | 0.0 | 0.00 | 1.08 | 0.56 | 94 | 1007.4 |
| 20260506122904 | 47 | 119 | 0.0 | 0.0 | 0.00 | 1.08 | 0.56 | 94 | 1007.3 |
| 20260506121404 | 47 | 119 | 0.0 | 0.0 | 0.00 | 1.09 | 0.56 | 94 | 1007.4 |
| 20260506120405 | 47 | 119 | 0.0 | 0.0 | 0.00 | 1.09 | 0.56 | 94 | 1007.3 |
| 20260506115905 | 46 | 119 | 0.0 | 0.0 | 0.00 | 1.09 | 0.56 | 94 | 1007.3 |
| 20260506115405 | 46 | 119 | 0.0 | 0.0 | 0.00 | 1.09 | 0.56 | 94 | 1007.1 |
| 20260506114905 | 46 | 119 | 0.0 | 0.0 | 0.00 | 1.09 | 0.56 | 94 | 1007.2 |
| 20260506114405 | 46 | 119 | 0.0 | 0.0 | 0.00 | 1.09 | 0.56 | 94 | 1007.2 |
| 20260506113905 | 46 | 119 | 0.0 | 0.0 | 0.00 | 1.09 | 0.56 | 94 | 1007.0 |
| 20260506113405 | 46 | 119 | 0.0 | 0.0 | 0.00 | 1.09 | 0.56 | 94 | 1007.0 |
| 20260506112905 | 46 | 119 | 0.0 | 0.0 | 0.00 | 1.09 | 0.56 | 94 | 1007.1 |
| 20260506112405 | 46 | 119 | 0.0 | 0.0 | 0.00 | 1.09 | 0.56 | 94 | 1007.5 |
| 20260506111905 | 46 | 119 | 0.0 | 0.0 | 0.01 | 1.09 | 0.56 | 94 | 1006.7 |
| 20260506111405 | 46 | 119 | 0.0 | 0.0 | 0.01 | 1.09 | 0.56 | 94 | 1007.1 |
| 20260506110905 | 46 | 119 | 0.0 | 0.0 | 0.02 | 1.09 | 0.56 | 94 | 1006.9 |
| 20260506110405 | 46 | 119 | 0.0 | 0.0 | 0.02 | 1.09 | 0.56 | 94 | 1006.5 |
| 20260506105905 | 46 | 119 | 0.0 | 0.0 | 0.03 | 1.09 | 0.56 | 94 | 1006.2 |
| 20260506105404 | 46 | 119 | 0.0 | 0.0 | 0.04 | 1.09 | 0.56 | 94 | 1005.9 |
| 20260506104904 | 46 | 119 | 0.0 | 0.0 | 0.04 | 1.09 | 0.56 | 94 | 1005.6 |
| 20260506104405 | 46 | 119 | 0.0 | 0.0 | 0.05 | 1.09 | 0.56 | 94 | 1005.8 |
| 20260506103904 | 46 | 119 | 0.0 | 0.0 | 0.06 | 1.09 | 0.56 | 94 | 1005.7 |
| 20260506103404 | 46 | 119 | 0.0 | 0.0 | 0.07 | 1.09 | 0.56 | 94 | 1005.5 |
| 20260506102905 | 46 | 119 | 0.0 | 0.0 | 0.07 | 1.09 | 0.56 | 94 | 1005.6 |
| 20260506102404 | 46 | 119 | 0.0 | 0.0 | 0.07 | 1.09 | 0.56 | 94 | 1005.9 |
| 20260506101905 | 46 | 119 | 0.0 | 0.0 | 0.06 | 1.08 | 0.55 | 94 | 1006.2 |
| 20260506101405 | 46 | 119 | 0.0 | 0.0 | 0.07 | 1.08 | 0.55 | 94 | 1006.4 |
| 20260506100904 | 46 | 119 | 0.0 | 0.0 | 0.06 | 1.07 | 0.54 | 94 | 1006.4 |
| 20260506100404 | 46 | 119 | 0.0 | 0.0 | 0.06 | 1.07 | 0.54 | 94 | 1006.4 |
| 20260506095904 | 46 | 119 | 0.0 | 0.0 | 0.05 | 1.06 | 0.53 | 94 | 1006.4 |
| 20260506095405 | 46 | 119 | 0.0 | 0.0 | 0.05 | 1.05 | 0.52 | 94 | 1006.3 |
| 20260506094904 | 46 | 119 | 0.0 | 0.0 | 0.05 | 1.05 | 0.52 | 94 | 1006.1 |
| 20260506094405 | 46 | 119 | 0.0 | 0.0 | 0.05 | 1.04 | 0.51 | 94 | 1006.3 |
| 20260506093904 | 46 | 119 | 0.0 | 0.0 | 0.05 | 1.03 | 0.50 | 94 | 1006.3 |
| 20260506093405 | 45 | 119 | 0.0 | 0.0 | 0.05 | 1.02 | 0.49 | 94 | 1006.2 |
| 20260506091905 | 45 | 119 | 0.0 | 0.0 | 0.10 | 1.02 | 0.49 | 93 | 1006.0 |
| 20260506091405 | 45 | 119 | 0.0 | 0.0 | 0.10 | 1.01 | 0.48 | 93 | 1005.8 |
| 20260506090905 | 46 | 119 | 0.0 | 0.0 | 0.12 | 1.01 | 0.48 | 93 | 1005.9 |
| 20260506090404 | 46 | 119 | 0.0 | 0.0 | 0.13 | 1.01 | 0.48 | 93 | 1006.0 |
| 20260506085904 | 46 | 119 | 0.0 | 0.0 | 0.14 | 1.01 | 0.48 | 94 | 1006.0 |
| 20260506085404 | 46 | 119 | 0.0 | 0.0 | 0.15 | 1.00 | 0.47 | 94 | 1005.8 |
| 20260506084905 | 46 | 132 | 0.0 | 0.0 | 0.16 | 1.00 | 0.47 | 94 | 1005.9 |
| 20260506084405 | 46 | 132 | 0.0 | 0.0 | 0.16 | 0.99 | 0.46 | 93 | 1006.0 |
| 20260506083904 | 46 | 132 | 0.0 | 0.0 | 0.16 | 0.98 | 0.45 | 93 | 1006.1 |
| 20260506083404 | 46 | 132 | 0.0 | 0.0 | 0.17 | 0.97 | 0.44 | 93 | 1005.8 |
| 20260506082905 | 46 | 132 | 0.0 | 0.0 | 0.16 | 0.96 | 0.43 | 93 | 1005.7 |
| 20260506082405 | 47 | 132 | 0.0 | 0.0 | 0.15 | 0.94 | 0.41 | 93 | 1005.7 |
| 20260506081905 | 47 | 164 | 0.0 | 0.0 | 0.14 | 0.92 | 0.39 | 94 | 1005.7 |
| 20260506081404 | 47 | 164 | 0.0 | 0.0 | 0.14 | 0.91 | 0.38 | 94 | 1005.6 |
| 20260506080904 | 47 | 164 | 0.0 | 0.0 | 0.13 | 0.89 | 0.36 | 94 | 1005.6 |
| 20260506080405 | 48 | 167 | 0.0 | 0.0 | 0.13 | 0.88 | 0.35 | 94 | 1005.4 |
| 20260506073405 | 48 | 171 | 0.0 | 0.0 | 0.09 | 0.80 | 0.27 | 94 | 1005.0 |
| 20260506072904 | 48 | 171 | 0.0 | 0.0 | 0.10 | 0.80 | 0.27 | 94 | 1005.0 |
| 20260506072405 | 48 | 171 | 0.0 | 0.0 | 0.10 | 0.79 | 0.26 | 93 | 1005.0 |
| 20260506071905 | 48 | 171 | 0.0 | 0.0 | 0.09 | 0.78 | 0.25 | 94 | 1005.0 |
| 20260506070904 | 49 | 171 | 0.0 | 0.0 | 0.09 | 0.76 | 0.23 | 94 | 1005.1 |
| 20260506070404 | 49 | 171 | 0.0 | 0.0 | 0.08 | 0.75 | 0.22 | 94 | 1005.2 |
| 20260506061904 | 49 | 159 | 0.0 | 0.0 | 0.07 | 0.69 | 0.16 | 94 | 1005.3 |
| 20260506061404 | 50 | 159 | 0.0 | 0.0 | 0.06 | 0.68 | 0.15 | 94 | 1005.4 |
| 20260506060404 | 50 | 159 | 0.0 | 0.0 | 0.06 | 0.67 | 0.14 | 94 | 1005.4 |
| 20260506050905 | 50 | 159 | 0.0 | 0.0 | 0.07 | 0.61 | 0.08 | 94 | 1006.1 |
| 20260506050405 | 50 | 159 | 0.0 | 0.0 | 0.08 | 0.61 | 0.08 | 94 | 1006.2 |
| 20260506044404 | 50 | 159 | 0.0 | 0.0 | 0.08 | 0.59 | 0.06 | 94 | 1006.3 |
| 20260506043904 | 50 | 159 | 0.0 | 0.0 | 0.08 | 0.59 | 0.06 | 94 | 1006.2 |
| 20260506043405 | 50 | 159 | 0.0 | 0.0 | 0.08 | 0.58 | 0.05 | 94 | 1006.3 |
| 20260506042905 | 50 | 159 | 0.0 | 0.0 | 0.08 | 0.57 | 0.04 | 94 | 1006.3 |
| 20260506042405 | 50 | 159 | 0.0 | 0.0 | 0.07 | 0.56 | 0.03 | 94 | 1006.4 |
| 20260506041904 | 50 | 159 | 0.0 | 0.0 | 0.08 | 0.56 | 0.03 | 94 | 1006.4 |
| 20260506041404 | 50 | 159 | 0.0 | 0.0 | 0.08 | 0.55 | 0.02 | 94 | 1006.6 |
| 20260506040905 | 50 | 159 | 0.0 | 0.0 | 0.07 | 0.54 | 0.01 | 94 | 1006.7 |
| 20260506035904 | 50 | 159 | 0.0 | 0.0 | 0.09 | 0.53 | 0.53 | 94 | 1006.5 |
| 20260506035405 | 50 | 159 | 0.0 | 0.0 | 0.09 | 0.52 | 0.52 | 94 | 1006.6 |
| 20260506034905 | 50 | 159 | 0.0 | 0.0 | 0.10 | 0.52 | 0.52 | 94 | 1006.6 |
| 20260506034404 | 50 | 159 | 0.0 | 0.0 | 0.10 | 0.51 | 0.51 | 93 | 1006.7 |
| 20260506033905 | 50 | 159 | 0.0 | 0.0 | 0.11 | 0.51 | 0.51 | 93 | 1006.8 |
| 20260506033404 | 51 | 159 | 0.0 | 0.0 | 0.10 | 0.50 | 0.50 | 93 | 1007.2 |
| 20260506032904 | 51 | 159 | 0.0 | 0.0 | 0.09 | 0.49 | 0.49 | 93 | 1007.4 |
| 20260506032404 | 51 | 159 | 0.0 | 0.0 | 0.10 | 0.49 | 0.49 | 94 | 1007.4 |
| 20260506031904 | 51 | 155 | 0.0 | 0.0 | 0.09 | 0.48 | 0.48 | 93 | 1007.0 |
| 20260506031405 | 51 | 155 | 0.0 | 3.0 | 0.09 | 0.48 | 0.48 | 93 | 1007.0 |
| 20260506030405 | 51 | 83 | 0.0 | 0.0 | 0.08 | 0.46 | 0.46 | 94 | 1007.0 |
| 20260506025905 | 51 | 83 | 0.0 | 0.0 | 0.07 | 0.44 | 0.44 | 93 | 1006.7 |
| 20260506025404 | 51 | 83 | 0.0 | 0.0 | 0.06 | 0.43 | 0.43 | 93 | 1006.6 |
| 20260506024904 | 51 | 83 | 0.0 | 0.0 | 0.06 | 0.42 | 0.42 | 93 | 1006.6 |
| 20260506024404 | 51 | 83 | 0.0 | 0.0 | 0.05 | 0.41 | 0.41 | 93 | 1006.6 |
| 20260506023904 | 51 | 83 | 0.0 | 0.0 | 0.04 | 0.40 | 0.40 | 93 | 1006.6 |
| 20260506023404 | 51 | 83 | 0.0 | 0.0 | 0.04 | 0.40 | 0.40 | 93 | 1006.6 |
| 20260506020404 | 52 | 83 | 0.0 | 0.0 | 0.05 | 0.38 | 0.38 | 93 | 1006.7 |
| 20260506015904 | 52 | 83 | 0.0 | 0.0 | 0.04 | 0.37 | 0.37 | 93 | 1006.7 |
| 20260506015405 | 52 | 83 | 0.0 | 0.0 | 0.04 | 0.37 | 0.37 | 93 | 1006.7 |
| 20260506014905 | 52 | 83 | 0.0 | 0.0 | 0.03 | 0.36 | 0.36 | 93 | 1006.7 |
| 20260506014404 | 52 | 83 | 0.0 | 0.0 | 0.03 | 0.36 | 0.36 | 93 | 1006.7 |
| 20260506013904 | 52 | 83 | 0.0 | 0.0 | 0.03 | 0.36 | 0.36 | 92 | 1006.6 |
| 20260506013404 | 52 | 83 | 0.0 | 0.0 | 0.04 | 0.36 | 0.36 | 93 | 1006.4 |
| 20260506012904 | 52 | 83 | 0.0 | 0.0 | 0.05 | 0.36 | 0.36 | 92 | 1006.4 |
| 20260506012404 | 53 | 91 | 0.0 | 0.0 | 0.05 | 0.35 | 0.35 | 92 | 1006.3 |
| 20260506011905 | 53 | 138 | 0.0 | 0.0 | 0.06 | 0.34 | 0.34 | 92 | 1006.3 |
| 20260506011404 | 53 | 138 | 0.0 | 0.0 | 0.07 | 0.34 | 0.34 | 93 | 1006.3 |
| 20260506010904 | 53 | 138 | 0.0 | 0.0 | 0.07 | 0.33 | 0.33 | 92 | 1006.2 |
| 20260506010405 | 53 | 138 | 0.0 | 0.0 | 0.10 | 0.33 | 0.33 | 92 | 1006.2 |
| 20260506005904 | 54 | 138 | 0.0 | 0.0 | 0.14 | 0.33 | 0.33 | 92 | 1006.2 |
| 20260506005404 | 54 | 138 | 0.0 | 0.0 | 0.27 | 0.33 | 0.33 | 92 | 1006.2 |
| 20260506004905 | 54 | 138 | 0.0 | 0.0 | 0.27 | 0.33 | 0.33 | 92 | 1006.0 |
| 20260506004405 | 54 | 138 | 0.0 | 0.0 | 0.28 | 0.33 | 0.33 | 92 | 1006.1 |
| 20260506003905 | 54 | 138 | 0.0 | 0.0 | 0.28 | 0.33 | 0.33 | 92 | 1006.2 |
| 20260506003404 | 54 | 138 | 0.0 | 0.0 | 0.27 | 0.32 | 0.32 | 91 | 1006.2 |
| 20260506002904 | 54 | 138 | 0.0 | 0.0 | 0.26 | 0.31 | 0.31 | 91 | 1006.2 |
| 20260506002404 | 55 | 138 | 0.0 | 0.0 | 0.26 | 0.30 | 0.30 | 91 | 1006.3 |
| 20260506001904 | 55 | 138 | 0.0 | 0.0 | 0.24 | 0.28 | 0.28 | 91 | 1006.4 |
| 20260506001404 | 55 | 138 | 0.0 | 0.0 | 0.23 | 0.27 | 0.27 | 91 | 1006.4 |
| 20260506000404 | 56 | 141 | 0.0 | 0.0 | 0.19 | 0.23 | 0.23 | 88 | 1006.5 |
| 20260505235904 | 57 | 117 | 1.0 | 18.0 | 0.15 | 0.19 | 0.19 | 89 | 1006.8 |
| 20260505234905 | 58 | 267 | 0.0 | 0.0 | 0.02 | 0.06 | 0.06 | 90 | 1005.7 |
| 20260505233905 | 58 | 267 | 0.0 | 0.0 | 0.02 | 0.05 | 0.05 | 90 | 1005.2 |
| 20260505233404 | 59 | 267 | 0.0 | 0.0 | 0.02 | 0.05 | 0.05 | 89 | 1005.2 |
| 20260505232905 | 59 | 267 | 0.0 | 0.0 | 0.02 | 0.05 | 0.05 | 89 | 1005.1 |
| 20260505232404 | 59 | 267 | 0.0 | 0.0 | 0.01 | 0.04 | 0.04 | 89 | 1005.2 |
| 20260505231404 | 59 | 267 | 0.0 | 0.0 | 0.01 | 0.04 | 0.04 | 88 | 1005.2 |
| 20260505230904 | 59 | 267 | 0.0 | 0.0 | 0.01 | 0.04 | 0.04 | 88 | 1005.2 |
| 20260505230405 | 59 | 267 | 0.0 | 0.0 | 0.01 | 0.04 | 0.04 | 88 | 1005.2 |
| 20260505225405 | 60 | 267 | 0.0 | 0.0 | 0.01 | 0.04 | 0.04 | 87 | 1005.3 |
| 20260505224904 | 60 | 267 | 0.0 | 0.0 | 0.01 | 0.04 | 0.04 | 87 | 1005.3 |
| 20260505224405 | 60 | 267 | 0.0 | 0.0 | 0.01 | 0.04 | 0.04 | 87 | 1005.3 |
| 20260505223905 | 60 | 267 | 0.0 | 0.0 | 0.00 | 0.03 | 0.03 | 87 | 1005.5 |
| 20260505223405 | 60 | 267 | 0.0 | 0.0 | 0.00 | 0.03 | 0.03 | 86 | 1005.5 |
| 20260505222905 | 60 | 267 | 0.0 | 0.0 | 0.00 | 0.03 | 0.03 | 86 | 1005.6 |
| 20260505222404 | 61 | 267 | 0.0 | 0.0 | 0.00 | 0.03 | 0.03 | 85 | 1005.5 |
| 20260505221904 | 61 | 265 | 0.0 | 0.0 | 0.00 | 0.03 | 0.03 | 86 | 1005.4 |
| 20260505221404 | 61 | 256 | 0.0 | 0.0 | 0.00 | 0.03 | 0.03 | 86 | 1005.5 |
| 20260505220904 | 61 | 256 | 0.0 | 1.0 | 0.00 | 0.03 | 0.03 | 85 | 1005.6 |
| 20260505220405 | 61 | 256 | 0.0 | 1.0 | 0.00 | 0.03 | 0.03 | 86 | 1005.5 |
| 20260505215904 | 61 | 256 | 0.0 | 0.0 | 0.01 | 0.03 | 0.03 | 85 | 1005.4 |
| 20260505215405 | 61 | 256 | 0.0 | 0.0 | 0.01 | 0.03 | 0.03 | 86 | 1005.4 |
| 20260505214904 | 61 | 256 | 0.0 | 0.0 | 0.02 | 0.03 | 0.03 | 85 | 1005.2 |
| 20260505214404 | 61 | 256 | 0.0 | 0.0 | 0.02 | 0.03 | 0.03 | 85 | 1005.2 |
| 20260505213904 | 61 | 256 | 0.0 | 0.0 | 0.02 | 0.03 | 0.03 | 85 | 1005.1 |
| 20260505213404 | 61 | 256 | 0.0 | 0.0 | 0.02 | 0.03 | 0.03 | 87 | 1005.0 |
| 20260505212905 | 61 | 256 | 0.0 | 0.0 | 0.02 | 0.03 | 0.03 | 86 | 1004.9 |
| 20260505212404 | 62 | 256 | 0.0 | 0.0 | 0.02 | 0.03 | 0.03 | 85 | 1005.0 |
| 20260505211904 | 62 | 256 | 0.0 | 0.0 | 0.02 | 0.03 | 0.03 | 84 | 1005.0 |